Weather in Utkino

Russia / Vologda Oblast     59˚08′32″N   39˚24′41″E
temp.,
°C
wind,
m/s
gust,
m/s
humid.,
%
clouds,
%
prec.,
mm/h
press.,
hPa
HPBL,
m
17 january, sun
sun1700:00−23˚n41197100 0.0 1010289
03:00−24˚n499796 0.0 1012219
06:00−24˚nnw379872 0.0 1012142
09:00−24˚nnw339861 0.0 101354
12:00−21˚nw239451 0.0 1015110
15:00−20˚wnw229446 0.0 101520
18:00−19˚wsw239777 0.1 101661
21:00−19˚wsw359883 0.1 1016123
18 january, mon
mon1800:00−16˚wsw369699 0.1 1016187
03:00−15˚sw379596 0.1 1016217
06:00−15˚sw379597 0.1 1015209
09:00−17˚wsw359798 0.1 101689
12:00−14˚sw369599 0.1 1017236
15:00−13˚wsw239699 0.2 101688
18:00−15˚wsw239783 0.1 101624
21:00−17˚sw239869 0.1 101756
19 january, tue
tue1900:00−17˚wsw229871 0.0 101720
03:00−17˚wsw239875 0.1 101722
06:00−17˚wsw229897 0.0 101620
09:00−16˚w229792 0.1 101720
12:00−13˚wsw239694 0.1 1016103
15:00−13˚wsw229696 0.1 101552
18:00−16˚wsw239786 0.0 101526
21:00−14˚w239688 0.1 101571
20 january, wed
wed2000:00−15˚w239786 0.1 101550
03:00−15˚w239788 0.1 101579
06:00−15˚w369783 0.1 1015132
09:00−14˚w369690 0.2 1016153
12:00−12˚w379492 0.1 1016211
15:00−13˚w379479 0.1 1016203
18:00−17˚w35960 0.0 101788
21:00−17˚wsw33970 0.0 101775
21 january, thu
thu2100:00−17˚wsw33970 0.0 101758
03:00−16˚sw359740 0.0 101684
06:00−15˚s3893100 0.0 1014195
09:00−14˚s41187100 0.0 1011279
12:00−11˚s51194100 1.1 1007518
15:00−10˚ssw51194100 2.9 1004636
18:00−8˚ssw31095100 2.0 1001544
21:00−6˚ssw3796100 5.1 999355